TimeCDT,TemperatureF,Dew PointF,Humidity,Sea Level PressureIn,VisibilityMPH,Wind Direction,Wind SpeedMPH,Gust SpeedMPH,PrecipitationIn,Events,Conditions,WindDirDegrees,DateUTC
12:15 AM,78.8,64.6,62,29.76,10.0,SW,10.4,20.7,N/A,,Clear,220,2013-07-19 05:15:00
12:35 AM,78.8,64.8,62,29.76,10.0,SW,12.7,21.9,N/A,,Clear,230,2013-07-19 05:35:00
12:55 AM,78.3,64.9,63,29.76,10.0,SW,15.0,23.0,N/A,,Mostly Cloudy,230,2013-07-19 05:55:00
1:15 AM,77.9,65.1,65,29.75,10.0,SW,12.7,20.7,N/A,,Mostly Cloudy,230,2013-07-19 06:15:00
1:35 AM,77.7,64.9,65,29.74,10.0,SW,11.5,21.9,N/A,,Mostly Cloudy,230,2013-07-19 06:35:00
1:55 AM,77.5,64.8,65,29.73,10.0,SW,15.0,20.7,N/A,,Scattered Clouds,230,2013-07-19 06:55:00
2:15 AM,77.2,64.8,65,29.72,10.0,SW,12.7,20.7,N/A,,Scattered Clouds,230,2013-07-19 07:15:00
2:35 AM,77.0,64.6,65,29.70,10.0,SW,15.0,20.7,N/A,,Scattered Clouds,230,2013-07-19 07:35:00
2:55 AM,77.0,64.8,66,29.69,10.0,SW,16.1,19.6,N/A,,Scattered Clouds,230,2013-07-19 07:55:00
3:15 AM,77.2,64.8,65,29.69,10.0,WSW,11.5,20.7,N/A,,Overcast,240,2013-07-19 08:15:00
3:35 AM,77.2,64.8,65,29.69,10.0,WSW,11.5,18.4,N/A,,Overcast,240,2013-07-19 08:35:00
3:55 AM,77.2,64.9,66,29.68,10.0,WSW,12.7,20.7,N/A,,Overcast,240,2013-07-19 08:55:00
4:15 AM,75.4,66.4,73,29.69,10.0,West,13.8,25.3,N/A,Rain,Light Rain,260,2013-07-19 09:15:00
4:35 AM,76.1,66.2,71,29.69,10.0,West,10.4,17.3,N/A,,Overcast,260,2013-07-19 09:35:00
4:55 AM,75.2,66.4,74,29.68,10.0,West,8.1,-,N/A,,Overcast,260,2013-07-19 09:55:00
5:15 AM,75.4,66.2,73,29.69,10.0,West,9.2,-,N/A,,Overcast,260,2013-07-19 10:15:00
5:35 AM,75.2,66.2,73,29.69,10.0,West,10.4,18.4,N/A,,Mostly Cloudy,260,2013-07-19 10:35:00
5:55 AM,75.2,66.2,73,29.70,10.0,West,10.4,19.6,N/A,,Overcast,260,2013-07-19 10:55:00
6:15 AM,75.2,66.4,74,29.70,10.0,West,10.4,19.6,N/A,,Overcast,260,2013-07-19 11:15:00
6:35 AM,75.0,66.7,75,29.70,10.0,West,9.2,-,N/A,,Scattered Clouds,260,2013-07-19 11:35:00
6:55 AM,75.2,66.9,75,29.70,10.0,West,8.1,-,N/A,,Scattered Clouds,260,2013-07-19 11:55:00
7:15 AM,75.6,67.1,75,29.71,10.0,WSW,11.5,-,N/A,,Scattered Clouds,250,2013-07-19 12:15:00
7:35 AM,76.1,67.3,74,29.71,10.0,West,10.4,-,N/A,,Scattered Clouds,270,2013-07-19 12:35:00
7:55 AM,76.1,66.9,73,29.72,10.0,West,11.5,18.4,N/A,,Scattered Clouds,260,2013-07-19 12:55:00
8:15 AM,77.4,67.5,71,29.71,10.0,WSW,10.4,-,N/A,,Scattered Clouds,250,2013-07-19 13:15:00
8:35 AM,78.1,66.7,68,29.71,10.0,West,15.0,18.4,N/A,,Clear,260,2013-07-19 13:35:00
8:55 AM,79.0,66.0,64,29.71,10.0,West,11.5,16.1,N/A,,Scattered Clouds,270,2013-07-19 13:55:00
9:15 AM,79.7,65.8,62,29.70,10.0,West,13.8,19.6,N/A,,Mostly Cloudy,260,2013-07-19 14:15:00
9:35 AM,80.2,65.5,61,29.70,10.0,West,12.7,21.9,N/A,,Mostly Cloudy,270,2013-07-19 14:35:00
9:55 AM,80.2,64.8,59,29.69,10.0,West,18.4,24.2,N/A,,Scattered Clouds,270,2013-07-19 14:55:00
10:15 AM,81.1,64.9,58,29.69,10.0,WSW,21.9,26.5,N/A,,Scattered Clouds,240,2013-07-19 15:15:00
10:35 AM,80.6,63.9,57,29.71,10.0,West,16.1,24.2,N/A,,Mostly Cloudy,280,2013-07-19 15:35:00
10:55 AM,80.1,62.6,55,29.72,10.0,NNW,19.6,28.8,N/A,,Mostly Cloudy,330,2013-07-19 15:55:00
11:15 AM,78.1,62.6,59,29.73,10.0,NNW,17.3,25.3,N/A,,Scattered Clouds,330,2013-07-19 16:15:00
11:35 AM,77.5,62.8,60,29.74,10.0,NW,17.3,32.2,N/A,,Scattered Clouds,320,2013-07-19 16:35:00
11:55 AM,78.1,62.6,59,29.74,10.0,NW,16.1,24.2,N/A,,Mostly Cloudy,310,2013-07-19 16:55:00
12:15 PM,78.1,61.0,56,29.75,10.0,NW,19.6,24.2,N/A,Rain,Light Rain,320,2013-07-19 17:15:00
12:35 PM,76.1,61.7,61,29.76,10.0,NW,15.0,-,N/A,,Mostly Cloudy,320,2013-07-19 17:35:00
12:55 PM,79.3,60.8,53,29.76,10.0,North,16.1,24.2,N/A,,Mostly Cloudy,350,2013-07-19 17:55:00
1:15 PM,77.9,57.7,50,29.76,10.0,NW,16.1,26.5,N/A,,Mostly Cloudy,320,2013-07-19 18:15:00
1:35 PM,79.0,59.0,50,29.76,10.0,NW,13.8,20.7,N/A,,Mostly Cloudy,320,2013-07-19 18:35:00
1:55 PM,78.4,58.1,50,29.77,10.0,WNW,16.1,24.2,N/A,,Mostly Cloudy,290,2013-07-19 18:55:00
2:15 PM,78.8,58.8,50,29.77,10.0,NW,13.8,18.4,N/A,,Scattered Clouds,310,2013-07-19 19:15:00
2:35 PM,78.6,58.3,50,29.77,10.0,NW,15.0,21.9,N/A,,Scattered Clouds,320,2013-07-19 19:35:00
2:55 PM,79.7,58.8,49,29.78,10.0,NW,13.8,21.9,N/A,,Mostly Cloudy,320,2013-07-19 19:55:00
3:15 PM,78.4,57.2,48,29.78,10.0,NW,16.1,21.9,N/A,,Scattered Clouds,310,2013-07-19 20:15:00
3:35 PM,79.5,57.4,47,29.78,10.0,NW,12.7,20.7,N/A,,Scattered Clouds,320,2013-07-19 20:35:00
3:55 PM,77.9,56.5,48,29.79,10.0,NW,15.0,20.7,N/A,,Scattered Clouds,320,2013-07-19 20:55:00
4:15 PM,78.6,56.1,46,29.79,10.0,NNW,17.3,20.7,N/A,,Scattered Clouds,330,2013-07-19 21:15:00
4:35 PM,79.3,55.8,44,29.79,10.0,NNW,16.1,19.6,N/A,,Scattered Clouds,330,2013-07-19 21:35:00
5:15 PM,78.1,55.4,45,29.79,10.0,NW,13.8,21.9,N/A,,Scattered Clouds,320,2013-07-19 22:15:00
5:55 PM,77.2,55.0,46,29.80,10.0,NNW,12.7,20.7,N/A,,Mostly Cloudy,340,2013-07-19 22:55:00
6:15 PM,75.9,54.7,48,29.80,10.0,NW,8.1,-,N/A,,Scattered Clouds,310,2013-07-19 23:15:00
6:35 PM,76.1,53.8,46,29.80,10.0,NNW,10.4,19.6,N/A,,Scattered Clouds,330,2013-07-19 23:35:00
6:55 PM,75.2,53.1,46,29.80,10.0,NW,11.5,18.4,N/A,,Scattered Clouds,310,2013-07-19 23:55:00
7:15 PM,74.3,53.4,48,29.81,10.0,NW,8.1,-,N/A,,Clear,310,2013-07-20 00:15:00
7:35 PM,73.2,52.5,48,29.81,10.0,NW,10.4,17.3,N/A,,Clear,320,2013-07-20 00:35:00
7:55 PM,72.0,53.8,53,29.81,10.0,NW,8.1,-,N/A,,Clear,320,2013-07-20 00:55:00
8:15 PM,70.5,54.9,58,29.82,10.0,WNW,4.6,-,N/A,,Clear,300,2013-07-20 01:15:00
9:15 PM,64.8,52.5,64,29.82,10.0,Calm,Calm,-,N/A,,Clear,0,2013-07-20 02:15:00
9:35 PM,63.0,53.6,71,29.82,10.0,Calm,Calm,-,N/A,,Clear,0,2013-07-20 02:35:00
9:55 PM,58.3,53.2,83,29.83,10.0,West,3.5,-,N/A,,Clear,260,2013-07-20 02:55:00
10:15 PM,59.0,53.1,81,29.83,10.0,WSW,3.5,-,N/A,,Clear,250,2013-07-20 03:15:00
10:35 PM,59.5,52.9,79,29.83,10.0,WSW,3.5,-,N/A,,Clear,240,2013-07-20 03:35:00
10:55 PM,57.9,51.6,80,29.83,10.0,WSW,4.6,-,N/A,,Clear,240,2013-07-20 03:55:00
11:15 PM,58.6,52.7,81,29.83,10.0,WSW,5.8,-,N/A,,Clear,240,2013-07-20 04:15:00
11:35 PM,59.9,52.9,78,29.84,10.0,SW,4.6,-,N/A,,Clear,230,2013-07-20 04:35:00
11:55 PM,59.4,52.3,78,29.84,10.0,SW,4.6,-,N/A,,Clear,230,2013-07-20 04:55:00